Location: Unspecified
(0.0000°N, 0.0000°E)
Time: 01:34:35
(UTC+00:00)

Falcon 9 debris - Pass Details

Date: 27 May 2022
Orbit: 386 x 392 km, 53.0° (Epoch: 29 June)

Event Time Altitude Azimuth Distance (km) Brightness Sun altitude
Rises 17:09:30 0° 322° (NW) 2,273 ? 11.1°
Reaches altitude 10° 17:11:34 10° 320° (NW) 1,418 ? 10.6°
Drops below altitude 10° 17:17:52 10° 152° (SSE) 1,417 ? 9.1°
Enters shadow 17:23:54 -12° 148° (SSE) 3,910 ? 7.7°
Exits shadow 17:58:21 -80° 112° (ESE) 12,960 ? -0.3°
Maximum altitude 04:46:48 59° 124° (SE) 457 ? -16.4°
